Weather History for Columbus AFB, MS

Change the Weather History Date:

Saturday, November 9, 2013

  Actual Average Record
Temperature  
Mean Temperature 50 °F -  
Max Temperature 58 °F 63 °F 89 °F (1998)
Min Temperature 41 °F 43 °F 32 °F (2012)
Degree Days  
Heating Degree Days 16    
Moisture  
Dew Point 41 °F    
Average Humidity 78    
Maximum Humidity 100    
Minimum Humidity 50    
Precipitation  
Precipitation 0.00 in - - ()
Sea Level Pressure  
Sea Level Pressure 30.28 in    
Wind  
Wind Speed 2 mph (SE)    
Max Wind Speed 7 mph    
Max Gust Speed -    
Visibility 3 miles    
Events Rain    
Averages and records for this station are not official NWS values.
T = Trace of Precipitation, MM = Missing Value Source: NWS Daily Summary

Daily Weather History Graph

Daily Weather History Graph

Search for Another Location

Airport:

Trip Planner

Search our weather history database for the weather conditions in past years. The results will help you decide how hot, cold, wet, or windy it might be!

Date:

Astronomy

Nov. 09, 2013 Rise Set
Actual Time 6:20 AM CST 4:54 PM CST
Civil Twilight 5:54 AM CST 5:20 PM CST
Nautical Twilight 5:24 AM CST 5:50 PM CST
Astronomical Twilight 4:54 AM CST 6:19 PM CST
Moon 11:59 AM CST (11/9) 11:20 PM CST (11/9)
Length of Visible Light 11h 26m
Length of Day
10h 34m
Waxing Crescent, 44% of the Moon is Illuminated
Nov 9
Waxing Crescent
Nov 9
First Quarter
Nov 17
Full
Nov 25
Last Quarter
Dec 2
New

Hourly Weather History & Observations

Time (CST) Temp. Windchill Dew Point Humidity Pressure Visibility Wind Dir Wind Speed Gust Speed Precip Events Conditions
12:03 AM 46.4 °F - 42.8 °F 87% 30.24 in 1.2 mi Calm Calm - N/A   Overcast
12:23 AM 46.4 °F - 42.8 °F 87% 30.23 in 1.5 mi SE 1.2 mph - N/A   Mostly Cloudy
12:28 AM 46.4 °F - 42.8 °F 87% 30.23 in 1.8 mi SE 2.3 mph - N/A   Scattered Clouds
12:38 AM 46.4 °F - 42.8 °F 87% 30.24 in 1.2 mi Calm Calm - N/A   Scattered Clouds
12:43 AM 46.4 °F - 42.8 °F 87% 30.24 in 1.2 mi Calm Calm - N/A   Mostly Cloudy
12:58 AM 45.5 °F - 41.7 °F 87% 30.25 in 1.2 mi South 2.3 mph - N/A   Mostly Cloudy
1:08 AM 44.6 °F - 41.0 °F 87% 30.24 in 1.0 mi South 2.3 mph - N/A   Haze
1:18 AM 44.6 °F - 39.2 °F 81% 30.24 in 1.2 mi Calm Calm - N/A   Haze
1:33 AM 42.8 °F - 41.0 °F 93% 30.24 in 1.5 mi NNW 2.3 mph - N/A   Mostly Cloudy
1:48 AM 42.8 °F - 41.0 °F 93% 30.25 in 1.2 mi Calm Calm - N/A   Scattered Clouds
1:58 AM 43.3 °F - 41.0 °F 91% 30.26 in 1.5 mi Calm Calm - N/A   Partly Cloudy
2:03 AM 42.8 °F - 41.0 °F 93% 30.25 in 1.8 mi East 1.2 mph - N/A   Partly Cloudy
2:08 AM 42.8 °F - 39.2 °F 87% 30.25 in 1.5 mi East 1.2 mph - N/A   Clear
2:13 AM 42.8 °F - 39.2 °F 87% 30.25 in 1.2 mi NNE 2.3 mph - N/A   Clear
2:23 AM 42.8 °F - 41.0 °F 93% 30.24 in 1.5 mi Calm Calm - N/A   Clear
2:33 AM 42.8 °F - 39.2 °F 87% 30.24 in 1.2 mi Calm Calm - N/A   Partly Cloudy
2:43 AM 41.0 °F - 39.2 °F 93% 30.24 in 1.2 mi Calm Calm - N/A   Mostly Cloudy
2:58 AM 42.4 °F - 40.3 °F 92% 30.25 in 1.2 mi Calm Calm - N/A   Overcast
3:03 AM 42.8 °F - 39.2 °F 87% 30.24 in 1.8 mi Calm Calm - N/A   Overcast
3:13 AM 42.8 °F - 41.0 °F 93% 30.24 in 1.5 mi Calm Calm - N/A   Overcast
3:18 AM 42.8 °F - 41.0 °F 93% 30.24 in 1.5 mi Variable 2.3 mph - N/A   Overcast
3:23 AM 42.8 °F - 41.0 °F 93% 30.24 in 1.5 mi NNE 2.3 mph - N/A   Overcast
3:28 AM 42.8 °F - 41.0 °F 93% 30.24 in 1.5 mi NE 2.3 mph - N/A   Overcast
3:33 AM 42.8 °F - 41.0 °F 93% 30.24 in 1.2 mi NE 2.3 mph - N/A   Overcast
3:43 AM 44.6 °F - 41.0 °F 87% 30.25 in 1.5 mi NNE 1.2 mph - N/A   Mostly Cloudy
3:48 AM 44.6 °F - 39.2 °F 81% 30.25 in 1.5 mi NNE 2.3 mph - N/A   Haze
3:53 AM 44.6 °F - 39.2 °F 81% 30.25 in 1.5 mi Calm Calm - N/A   Haze
3:58 AM 44.2 °F - 39.9 °F 85% 30.26 in 1.5 mi NE 2.3 mph - N/A   Haze
4:08 AM 42.8 °F - 39.2 °F 87% 30.25 in 1.5 mi North 1.2 mph - N/A   Clear
4:23 AM 42.8 °F - 39.2 °F 87% 30.25 in 1.2 mi Calm Calm - N/A   Scattered Clouds
4:28 AM 41.0 °F - 39.2 °F 93% 30.25 in 1.8 mi Calm Calm - N/A   Scattered Clouds
4:33 AM 41.0 °F - 39.2 °F 93% 30.25 in 2.0 mi Calm Calm - N/A   Scattered Clouds
4:38 AM 41.0 °F - 39.2 °F 93% 30.25 in 1.5 mi Calm Calm - N/A   Scattered Clouds
4:43 AM 41.0 °F - 39.2 °F 93% 30.26 in 1.2 mi Calm Calm - N/A   Mostly Cloudy
4:48 AM 41.0 °F - 39.2 °F 93% 30.26 in 1.5 mi North 2.3 mph - N/A   Mostly Cloudy
4:53 AM 41.0 °F - 39.2 °F 93% 30.26 in 1.5 mi NNE 2.3 mph - N/A   Mostly Cloudy
4:58 AM 41.4 °F - 39.9 °F 95% 30.27 in 1.5 mi North 2.3 mph - N/A   Mostly Cloudy
5:03 AM 42.8 °F - 41.0 °F 93% 30.27 in 1.5 mi North 2.3 mph - N/A   Mostly Cloudy
5:08 AM 42.8 °F - 41.0 °F 93% 30.27 in 1.8 mi North 1.2 mph - N/A   Mostly Cloudy
5:23 AM 42.8 °F - 41.0 °F 93% 30.27 in 1.8 mi Calm Calm - N/A   Overcast
5:28 AM 42.8 °F - 39.2 °F 87% 30.27 in 1.2 mi Calm Calm - N/A   Mostly Cloudy
5:38 AM 41.0 °F - 39.2 °F 93% 30.28 in 1.8 mi WSW 2.3 mph - N/A   Mostly Cloudy
5:43 AM 41.0 °F - 39.2 °F 93% 30.28 in 1.5 mi WSW 2.3 mph - N/A   Mostly Cloudy
5:48 AM 41.0 °F - 39.2 °F 93% 30.28 in 1.2 mi WSW 2.3 mph - N/A   Overcast
5:53 AM 41.0 °F - 39.2 °F 93% 30.28 in 1.0 mi West 1.2 mph - N/A   Mostly Cloudy
5:58 AM 41.0 °F - 39.4 °F 94% 30.30 in 1.0 mi Calm Calm - N/A   Overcast
6:03 AM 41.0 °F - 39.2 °F 93% 30.29 in 1.2 mi Calm Calm - N/A   Overcast
6:08 AM 41.0 °F - 39.2 °F 93% 30.29 in 1.5 mi North 2.3 mph - N/A   Overcast
6:13 AM 41.0 °F - 41.0 °F 100% 30.29 in 1.8 mi North 2.3 mph - N/A   Overcast
6:18 AM 42.8 °F - 41.0 °F 93% 30.29 in 1.5 mi North 2.3 mph - N/A   Overcast
6:23 AM 42.8 °F - 41.0 °F 93% 30.29 in 1.2 mi Calm Calm - N/A   Overcast
6:28 AM 42.8 °F - 41.0 °F 93% 30.29 in 1.0 mi Calm Calm - N/A   Overcast
6:33 AM 42.8 °F - 41.0 °F 93% 30.29 in 1.0 mi Calm Calm - N/A   Overcast
6:38 AM 42.8 °F - 41.0 °F 93% 30.29 in 1.0 mi ENE 2.3 mph - N/A   Overcast
6:48 AM 42.8 °F - 41.0 °F 93% 30.29 in 1.0 mi ESE 2.3 mph - N/A   Overcast
6:58 AM 43.5 °F - 41.9 °F 94% 30.31 in 1.2 mi Calm Calm - N/A   Mostly Cloudy
7:38 AM 46.4 °F 43.5 °F 39.2 °F 76% 30.30 in 1.5 mi SSE 5.8 mph - N/A   Haze
7:43 AM 46.4 °F 44.3 °F 39.2 °F 76% 30.30 in 1.8 mi SSE 4.6 mph - N/A   Haze
7:58 AM 47.1 °F - 39.0 °F 73% 30.32 in 1.5 mi SSE 3.5 mph - N/A   Haze
8:23 AM 50.0 °F - 39.2 °F 66% 30.32 in 2.0 mi South 6.9 mph - N/A   Haze
8:38 AM 50.0 °F - 37.4 °F 62% 30.32 in 1.2 mi South 4.6 mph - N/A   Haze
8:43 AM 51.8 °F - 37.4 °F 58% 30.32 in 1.0 mi SE 4.6 mph - N/A   Haze
8:48 AM 51.8 °F - 37.4 °F 58% 30.33 in 1.0 mi SSE 4.6 mph - N/A   Haze
8:53 AM 51.8 °F - 39.2 °F 62% 30.33 in 1.0 mi SSE 3.5 mph - N/A   Haze
8:58 AM 52.2 °F - 38.3 °F 59% 30.34 in 1.2 mi SSE 4.6 mph - N/A   Haze
9:08 AM 51.8 °F - 37.4 °F 58% 30.33 in 1.5 mi South 5.8 mph - N/A   Haze
9:13 AM 53.6 °F - 37.4 °F 54% 30.33 in 2.5 mi South 4.6 mph - N/A   Haze
9:18 AM 53.6 °F - 37.4 °F 54% 30.33 in 3.0 mi South 5.8 mph - N/A   Haze
9:23 AM 53.6 °F - 37.4 °F 54% 30.33 in 3.0 mi South 3.5 mph - N/A   Haze
9:33 AM 53.6 °F - 39.2 °F 58% 30.32 in 2.0 mi SSE 4.6 mph - N/A   Haze
9:38 AM 53.6 °F - 37.4 °F 54% 30.32 in 2.0 mi South 3.5 mph - N/A   Haze
9:48 AM 53.6 °F - 39.2 °F 58% 30.32 in 2.5 mi SSE 4.6 mph - N/A   Haze
9:58 AM 54.3 °F - 38.7 °F 55% 30.33 in 1.8 mi South 6.9 mph - N/A   Haze
10:03 AM 55.4 °F - 39.2 °F 54% 30.31 in 2.5 mi South 5.8 mph - N/A   Haze
10:08 AM 55.4 °F - 39.2 °F 54% 30.31 in 2.5 mi SSE 6.9 mph - N/A   Haze
10:13 AM 55.4 °F - 39.2 °F 54% 30.31 in 1.8 mi SSE 5.8 mph - N/A   Haze
10:18 AM 55.4 °F - 39.2 °F 54% 30.31 in 1.5 mi South 6.9 mph - N/A   Haze
10:23 AM 55.4 °F - 39.2 °F 54% 30.32 in 2.5 mi South 4.6 mph - N/A   Haze
10:28 AM 55.4 °F - 39.2 °F 54% 30.31 in 3.0 mi SE 3.5 mph - N/A   Haze
10:33 AM 55.4 °F - 39.2 °F 54% 30.31 in 1.5 mi SE 3.5 mph - N/A   Haze
10:38 AM 55.4 °F - 39.2 °F 54% 30.31 in 1.2 mi SE 3.5 mph - N/A   Haze
10:43 AM 55.4 °F - 39.2 °F 54% 30.31 in 1.5 mi SE 2.3 mph - N/A   Haze
10:53 AM 55.4 °F - 39.2 °F 54% 30.31 in 1.8 mi SSE 5.8 mph - N/A   Haze
10:58 AM 56.1 °F - 38.5 °F 52% 30.31 in 2.0 mi SE 5.8 mph - N/A   Haze
11:03 AM 57.2 °F - 39.2 °F 51% 30.30 in 1.5 mi SE 2.3 mph - N/A   Haze
11:08 AM 57.2 °F - 39.2 °F 51% 30.31 in 1.2 mi SSE 3.5 mph - N/A   Haze
11:18 AM 57.2 °F - 39.2 °F 51% 30.30 in 1.5 mi SSE 5.8 mph - N/A   Haze
11:23 AM 57.2 °F - 39.2 °F 51% 30.29 in 1.8 mi SE 5.8 mph - N/A   Haze
11:28 AM 57.2 °F - 39.2 °F 51% 30.29 in 2.5 mi SE 5.8 mph - N/A   Haze
11:33 AM 57.2 °F - 39.2 °F 51% 30.29 in 4.0 mi SSE 5.8 mph - N/A   Haze
11:43 AM 57.2 °F - 39.2 °F 51% 30.29 in 5.0 mi SE 3.5 mph - N/A   Haze
11:58 AM 58.1 °F - 39.6 °F 50% 30.29 in 5.0 mi South 4.6 mph - N/A   Haze
12:58 PM 57.0 °F - 41.0 °F 55% 30.26 in 10.0 mi SSE 2.3 mph - N/A   Clear
1:58 PM 57.7 °F - 42.1 °F 56% 30.26 in 10.0 mi SW 5.8 mph - N/A   Partly Cloudy
2:58 PM 57.0 °F - 42.6 °F 59% 30.25 in 10.0 mi West 3.5 mph - N/A   Partly Cloudy
3:58 PM 56.5 °F - 43.5 °F 62% 30.26 in 10.0 mi Calm Calm - N/A   Clear
4:58 PM 54.7 °F - 45.3 °F 71% 30.26 in 10.0 mi ENE 2.3 mph - N/A   Scattered Clouds
5:58 PM 53.1 °F - 46.6 °F 79% 30.26 in 10.0 mi ESE 4.6 mph - N/A   Scattered Clouds
6:58 PM 52.3 °F - 47.8 °F 85% 30.28 in 10.0 mi Variable 1.2 mph - N/A   Overcast
7:58 PM 52.3 °F - 48.2 °F 86% 30.28 in 9.0 mi West 1.2 mph - N/A   Overcast
8:58 PM 52.0 °F - 49.1 °F 90% 30.29 in 10.0 mi Calm Calm - N/A   Overcast
9:02 PM 51.8 °F - 48.2 °F 88% 30.28 in 10.0 mi Calm Calm - N/A Rain Light Rain
9:29 PM 51.8 °F - 50.0 °F 94% 30.28 in 10.0 mi Calm Calm - N/A   Mostly Cloudy
9:58 PM 52.3 °F - 49.5 °F 90% 30.29 in 10.0 mi North 2.3 mph - 0.00 in   Overcast
10:58 PM 52.3 °F - 50.9 °F 95% 30.28 in 10.0 mi NNW 4.6 mph - N/A   Overcast
11:58 PM 52.2 °F - 50.2 °F 93% 30.28 in 10.0 mi North 5.8 mph - N/A   Overcast